TimeCDT,TemperatureF,Dew PointF,Humidity,Sea Level PressureIn,VisibilityMPH,Wind Direction,Wind SpeedMPH,Gust SpeedMPH,PrecipitationIn,Events,Conditions,WindDirDegrees,DateUTC
12:12 AM,33.8,23.0,65,30.03,10.0,West,8.1,-,N/A,,Clear,280,2012-10-10 05:12:00
12:33 AM,33.8,23.0,65,30.03,10.0,WSW,6.9,-,N/A,,Clear,250,2012-10-10 05:33:00
12:53 AM,30.2,21.2,69,30.03,10.0,WSW,4.6,-,N/A,,Clear,250,2012-10-10 05:53:00
1:13 AM,30.2,21.2,69,30.04,10.0,WSW,5.8,-,N/A,,Clear,240,2012-10-10 06:13:00
1:32 AM,30.2,21.2,69,30.04,10.0,WSW,5.8,-,N/A,,Clear,250,2012-10-10 06:32:00
1:53 AM,30.2,21.2,69,30.04,10.0,WSW,5.8,-,N/A,,Mostly Cloudy,250,2012-10-10 06:53:00
2:12 AM,32.0,23.0,69,30.05,10.0,WSW,5.8,-,N/A,,Overcast,250,2012-10-10 07:12:00
2:33 AM,33.8,26.6,75,30.05,10.0,WSW,5.8,-,N/A,,Overcast,250,2012-10-10 07:33:00
2:53 AM,33.8,26.6,75,30.05,10.0,WSW,8.1,-,N/A,,Overcast,240,2012-10-10 07:53:00
3:12 AM,33.8,26.6,75,30.05,10.0,WSW,8.1,-,N/A,,Mostly Cloudy,250,2012-10-10 08:12:00
3:33 AM,32.0,23.0,69,30.04,10.0,WSW,5.8,-,N/A,,Scattered Clouds,250,2012-10-10 08:33:00
3:52 AM,30.2,23.0,75,30.04,10.0,West,4.6,-,N/A,,Mostly Cloudy,260,2012-10-10 08:52:00
4:13 AM,32.0,24.8,75,30.05,10.0,West,4.6,-,N/A,,Overcast,260,2012-10-10 09:13:00
4:33 AM,32.0,24.8,75,30.05,10.0,Calm,Calm,-,N/A,,Overcast,0,2012-10-10 09:33:00
4:52 AM,33.8,26.6,75,30.05,10.0,WSW,4.6,-,N/A,,Mostly Cloudy,240,2012-10-10 09:52:00
5:13 AM,32.0,24.8,75,30.06,10.0,WSW,4.6,-,N/A,,Scattered Clouds,250,2012-10-10 10:13:00
5:33 AM,30.2,23.0,75,30.07,10.0,WSW,4.6,-,N/A,,Scattered Clouds,250,2012-10-10 10:33:00
5:52 AM,28.4,21.2,74,30.07,10.0,West,4.6,-,N/A,,Clear,260,2012-10-10 10:52:00
6:13 AM,28.4,21.2,74,30.08,10.0,Calm,Calm,-,N/A,,Clear,0,2012-10-10 11:13:00
6:32 AM,28.4,21.2,74,30.09,10.0,WSW,3.5,-,N/A,,Scattered Clouds,250,2012-10-10 11:32:00
6:53 AM,28.4,21.2,74,30.09,10.0,WSW,3.5,-,N/A,,Scattered Clouds,240,2012-10-10 11:53:00
7:12 AM,28.4,21.2,74,30.10,10.0,Calm,Calm,-,N/A,,Scattered Clouds,0,2012-10-10 12:12:00
7:33 AM,28.4,21.2,74,30.10,10.0,WSW,6.9,-,N/A,,Clear,250,2012-10-10 12:33:00
7:53 AM,28.4,21.2,74,30.11,10.0,WSW,8.1,-,N/A,,Clear,250,2012-10-10 12:53:00
8:12 AM,32.0,26.6,80,30.12,10.0,West,6.9,-,N/A,,Clear,260,2012-10-10 13:12:00
8:33 AM,33.8,28.4,81,30.13,10.0,West,8.1,-,N/A,,Clear,260,2012-10-10 13:33:00
8:53 AM,35.6,28.4,75,30.13,10.0,West,9.2,-,N/A,,Clear,260,2012-10-10 13:53:00
9:13 AM,39.2,30.2,70,30.14,10.0,West,9.2,-,N/A,,Clear,270,2012-10-10 14:13:00
9:33 AM,39.2,28.4,65,30.14,10.0,West,8.1,-,N/A,,Clear,280,2012-10-10 14:33:00
9:52 AM,41.0,28.4,61,30.14,10.0,West,9.2,-,N/A,,Clear,270,2012-10-10 14:52:00
10:13 AM,41.0,28.4,61,30.14,10.0,West,8.1,-,N/A,,Clear,260,2012-10-10 15:13:00
10:33 AM,44.6,28.4,53,30.14,10.0,West,10.4,-,N/A,,Clear,260,2012-10-10 15:33:00
10:53 AM,44.6,26.6,49,30.14,10.0,West,8.1,-,N/A,,Clear,270,2012-10-10 15:53:00
11:13 AM,44.6,26.6,49,30.14,10.0,West,9.2,-,N/A,,Clear,280,2012-10-10 16:13:00
11:52 AM,46.4,23.0,40,30.15,10.0,WNW,13.8,-,N/A,,Clear,290,2012-10-10 16:52:00
12:13 PM,48.2,23.0,37,30.14,10.0,West,16.1,21.9,N/A,,Clear,260,2012-10-10 17:13:00
12:33 PM,50.0,24.8,37,30.14,10.0,West,15.0,19.6,N/A,,Scattered Clouds,280,2012-10-10 17:33:00
12:53 PM,51.8,23.0,33,30.13,10.0,WSW,15.0,19.6,N/A,,Mostly Cloudy,250,2012-10-10 17:53:00
1:13 PM,50.0,23.0,35,30.12,10.0,WSW,13.8,21.9,N/A,,Mostly Cloudy,250,2012-10-10 18:13:00
1:33 PM,51.8,23.0,33,30.12,10.0,West,15.0,19.6,N/A,,Scattered Clouds,280,2012-10-10 18:33:00
1:52 PM,53.6,24.8,33,30.11,10.0,West,13.8,19.6,N/A,,Scattered Clouds,270,2012-10-10 18:52:00
2:13 PM,53.6,21.2,28,30.10,10.0,WSW,12.7,23.0,N/A,,Scattered Clouds,250,2012-10-10 19:13:00
2:33 PM,53.6,21.2,28,30.09,10.0,WSW,15.0,23.0,N/A,,Scattered Clouds,240,2012-10-10 19:33:00
2:53 PM,53.6,23.0,30,30.08,10.0,WSW,10.4,-,N/A,,Mostly Cloudy,250,2012-10-10 19:53:00
3:13 PM,53.6,23.0,30,30.08,10.0,WSW,11.5,21.9,N/A,,Scattered Clouds,240,2012-10-10 20:13:00
3:32 PM,53.6,21.2,28,30.08,10.0,WSW,16.1,21.9,N/A,,Scattered Clouds,250,2012-10-10 20:32:00
3:53 PM,53.6,19.4,26,30.05,10.0,West,16.1,20.7,N/A,,Scattered Clouds,260,2012-10-10 20:53:00
4:13 PM,55.4,19.4,25,30.05,10.0,WSW,12.7,-,N/A,,Clear,250,2012-10-10 21:13:00
4:33 PM,55.4,19.4,25,30.05,10.0,WSW,16.1,-,N/A,,Clear,240,2012-10-10 21:33:00
4:53 PM,55.4,19.4,25,30.04,10.0,WSW,13.8,21.9,N/A,,Clear,240,2012-10-10 21:53:00
5:13 PM,53.6,17.6,24,30.04,10.0,WSW,12.7,-,N/A,,Clear,240,2012-10-10 22:13:00
5:32 PM,53.6,17.6,24,30.03,10.0,WSW,10.4,-,N/A,,Scattered Clouds,250,2012-10-10 22:32:00
5:53 PM,53.6,17.6,24,30.02,10.0,SW,10.4,-,N/A,,Scattered Clouds,230,2012-10-10 22:53:00
6:13 PM,53.6,19.4,26,30.02,10.0,SW,6.9,-,N/A,,Mostly Cloudy,230,2012-10-10 23:13:00
6:33 PM,53.6,21.2,28,30.02,10.0,South,4.6,-,N/A,,Overcast,180,2012-10-10 23:33:00
6:52 PM,53.6,21.2,28,30.01,10.0,South,8.1,-,N/A,,Overcast,190,2012-10-10 23:52:00
7:13 PM,51.8,21.2,30,30.00,10.0,South,9.2,-,N/A,,Mostly Cloudy,180,2012-10-11 00:13:00
7:33 PM,51.8,21.2,30,30.00,10.0,South,9.2,-,N/A,,Scattered Clouds,170,2012-10-11 00:33:00
7:53 PM,51.8,21.2,30,29.99,10.0,South,11.5,-,N/A,,Clear,170,2012-10-11 00:53:00
8:12 PM,48.2,21.2,34,29.99,10.0,SSE,11.5,-,N/A,,Clear,160,2012-10-11 01:12:00
8:33 PM,48.2,21.2,34,29.98,10.0,South,11.5,-,N/A,,Scattered Clouds,170,2012-10-11 01:33:00
8:53 PM,50.0,23.0,35,29.97,10.0,South,15.0,-,N/A,,Mostly Cloudy,170,2012-10-11 01:53:00
9:13 PM,50.0,23.0,35,29.97,10.0,South,13.8,-,N/A,,Mostly Cloudy,170,2012-10-11 02:13:00
9:33 PM,50.0,23.0,35,29.96,10.0,South,15.0,-,N/A,,Mostly Cloudy,170,2012-10-11 02:33:00
9:53 PM,51.8,23.0,33,29.96,10.0,South,15.0,-,N/A,,Overcast,170,2012-10-11 02:53:00
10:13 PM,51.8,23.0,33,29.95,10.0,South,17.3,-,N/A,,Overcast,170,2012-10-11 03:13:00
10:32 PM,51.8,23.0,33,29.94,10.0,South,18.4,-,N/A,,Overcast,170,2012-10-11 03:32:00
10:53 PM,50.0,23.0,35,29.94,10.0,South,17.3,-,N/A,,Scattered Clouds,180,2012-10-11 03:53:00
11:13 PM,48.2,23.0,37,29.93,10.0,South,13.8,-,N/A,,Clear,190,2012-10-11 04:13:00
11:32 PM,46.4,24.8,43,29.92,10.0,South,13.8,-,N/A,,Clear,180,2012-10-11 04:32:00
11:53 PM,46.4,26.6,46,29.91,10.0,South,16.1,-,N/A,,Clear,190,2012-10-11 04:53:00